Tracking 19827 objects as of 21-Aug-2019
HD Live streaming from Space Station
objects crossing your sky now

EKRAN 6

Track EKRAN 6 now!
EKRAN 6 is classified as:


NORAD ID: 12120
Int'l Code: 1980-104A
Perigee: 35,773.2 km
Apogee: 35,835.7 km
Inclination: 11.9 °
Period: 1,436.6 minutes
Semi major axis: 42175 km
RCS: 6.3095 m2 (large)
Launch date: December 26, 1980
Source: Commonwealth of Independent States (former USSR) (CIS)
Launch site: TYURATAM MISSILE AND SPACE COMPLEX (TTMTR)
aabbcc
Your satellite tracking list
Your tracking list is empty




NASA's NSSDC Master Catalog

Two Line Element Set (TLE):
1 12120U 80104A   19232.84205230 +.00000045 +00000-0 +00000-0 0  9999
2 12120 011.8537 317.2804 0007412 009.4749 005.0427 01.00233591102426
Source of the keplerian elements: AFSPC